EW9532 Weather Reports


time (UTC)temp
C
wind
direction
speed
KPH
gust
KPH
rain 1hr
cm
rain 24hr
cm
rain mn
cm
humidity
%
barometer
mb
20260906212229 38 90 6.4 16.1 0.00 0.03 0.00 45 1010.6
20260906211730 38 53 4.8 14.5 0.00 0.03 0.00 44 1010.6
20260906211610 37 296 3.2 14.5 0.00 0.03 0.00 45 1010.9
20260906211232 38 107 6.4 14.5 0.00 0.03 0.00 45 1010.8
20260906210732 38 34 8.0 16.1 0.00 0.03 0.00 44 1010.8
20260906210231 38 243 8.0 16.1 0.00 0.03 0.00 45 1010.8
20260906210112 38 292 6.4 16.1 0.00 0.03 0.00 44 1011.0
20260906205731 38 179 6.4 14.5 0.00 0.03 0.00 45 1010.8
20260906205231 37 110 4.8 14.5 0.00 0.03 0.00 45 1010.8
20260906204959 37 134 6.4 12.9 0.00 0.03 0.00 45 1010.9
20260906204604 37 345 4.8 14.5 0.00 0.03 0.00 44 1011.1
20260906204231 37 302 4.8 11.3 0.00 0.03 0.00 44 1010.9
20260906203731 38 94 6.4 11.3 0.00 0.03 0.00 44 1011.0
20260906203230 38 58 6.4 19.3 0.00 0.03 0.00 43 1011.0
20260906203053 38 303 3.2 19.3 0.00 0.03 0.00 42 1011.4
20260906202731 38 312 6.4 19.3 0.00 0.03 0.00 42 1011.2
20260906202231 39 86 6.4 12.9 0.00 0.03 0.00 41 1011.2
20260906201729 40 188 3.2 11.3 0.00 0.03 0.00 39 1011.2
20260906201604 40 161 1.6 9.7 0.00 0.03 0.00 41 1011.6
20260906201229 40 149 4.8 11.3 0.00 0.03 0.00 40 1011.3
20260906200729 40 330 4.8 11.3 0.00 0.03 0.00 39 1011.3
20260906200229 39 82 4.8 11.3 0.00 0.03 0.00 40 1011.3
20260906200057 39 276 4.8 11.3 0.00 0.03 0.00 40 1011.8
20260906195728 39 170 4.8 11.3 0.00 0.03 0.00 40 1011.6
20260906195229 39 221 3.2 16.1 0.00 0.03 0.00 39 1011.8
20260906194729 39 274 6.4 16.1 0.00 0.03 0.00 41 1011.8
20260906194629 38 242 1.6 12.9 0.00 0.03 0.00 43 1011.9
20260906194228 38 221 6.4 14.5 0.00 0.03 0.00 43 1011.8
20260906193729 38 264 8.0 12.9 0.00 0.03 0.00 43 1011.8
20260906193229 38 236 6.4 12.9 0.00 0.03 0.00 43 1011.9
20260906193101 38 20 4.8 11.3 0.00 0.03 0.00 43 1012.1
20260906192729 38 39 4.8 12.9 0.00 0.03 0.00 43 1012.0
20260906192228 37 182 3.2 17.7 0.00 0.03 0.00 44 1012.1
20260906191729 38 301 3.2 17.7 0.00 0.03 0.00 45 1012.1
20260906191608 37 285 8.0 17.7 0.00 0.03 0.00 45 1012.2
20260906191228 38 36 3.2 20.9 0.00 0.03 0.00 45 1012.2
20260906190731 38 237 4.8 20.9 0.00 0.03 0.00 44 1012.2
20260906190230 37 96 8.0 20.9 0.00 0.03 0.00 46 1012.4
20260906190103 37 337 3.2 12.9 0.00 0.03 0.00 48 1012.7
20260906185731 37 115 6.4 14.5 0.00 0.03 0.00 47 1012.6
20260906185230 36 141 8.0 14.5 0.00 0.03 0.00 48 1012.6
20260906184948 36 196 3.2 9.7 0.00 0.03 0.00 51 1012.8
20260906184606 36 217 3.2 12.9 0.00 0.03 0.00 50 1013.1
20260906184228 36 70 4.8 14.5 0.00 0.03 0.00 50 1012.9
20260906183729 37 131 6.4 17.7 0.00 0.03 0.00 49 1012.9
20260906183229 36 323 9.7 17.7 0.00 0.03 0.00 49 1012.9
20260906183104 36 264 3.2 14.5 0.00 0.03 0.00 49 1013.2
20260906182729 37 210 3.2 11.3 0.00 0.03 0.00 49 1013.0
20260906182230 37 234 4.8 11.3 0.00 0.03 0.00 49 1013.1
20260906181730 37 219 4.8 11.3 0.00 0.03 0.00 50 1013.2
20260906181556 37 63 3.2 11.3 0.00 0.03 0.00 50 1013.5
20260906181230 37 153 3.2 11.3 0.00 0.03 0.00 51 1013.4
20260906181000 36 134 3.2 12.9 0.00 0.03 0.00 53 1013.5
20260906180231 36 131 6.4 12.9 0.00 0.03 0.00 51 1013.5
20260906180057 36 161 4.8 12.9 0.00 0.03 0.00 53 1013.7
20260906175953 35 4 4.8 12.9 0.00 0.03 0.00 54 1013.5
20260906175231 35 127 8.0 12.9 0.00 0.03 0.00 53 1013.7
20260906174729 36 144 4.8 12.9 0.00 0.03 0.00 55 1013.8
20260906174559 36 284 4.8 12.9 0.00 0.03 0.00 54 1014.0
20260906174230 36 8 3.2 11.3 0.00 0.03 0.00 56 1014.0
20260906174221 36 267 3.2 11.3 0.00 0.03 0.00 55 1014.1
20260906173453 35 13 6.4 11.3 0.00 0.03 0.00 56 1014.1
20260906173201 35 172 3.2 16.1 0.00 0.03 0.00 56 1014.3
20260906172730 35 212 3.2 14.5 0.00 0.03 0.00 58 1014.1
20260906172230 35 319 8.0 14.5 0.00 0.03 0.00 57 1014.2
20260906171729 35 265 3.2 11.3 0.00 0.03 0.00 58 1014.5
20260906171606 35 256 3.2 11.3 0.00 0.03 0.00 58 1014.6
20260906171229 35 163 3.2 11.3 0.00 0.03 0.00 59 1014.3
20260906170730 35 283 6.4 11.3 0.00 0.03 0.00 58 1014.3
20260906170229 35 290 4.8 14.5 0.00 0.03 0.00 58 1014.3
20260906170152 35 195 4.8 16.1 0.00 0.03 0.00 58 1014.6
20260906165950 35 257 6.4 16.1 0.00 0.03 0.00 59 1014.4
20260906165229 35 223 4.8 16.1 0.00 0.03 0.00 60 1014.5
20260906164739 35 258 4.8 14.5 0.00 0.03 0.00 58 1014.7
20260906164728 35 272 8.0 14.5 0.00 0.03 0.00 59 1014.5
20260906164228 35 119 8.0 11.3 0.00 0.03 0.00 59 1014.5
20260906163949 35 309 4.8 9.7 0.00 0.03 0.00 61 1014.6
20260906163230 34 230 4.8 12.9 0.00 0.03 0.00 60 1014.6
20260906163059 34 83 3.2 12.9 0.00 0.03 0.00 61 1014.8
20260906162950 34 76 4.8 12.9 0.00 0.03 0.00 61 1014.6
20260906162230 33 330 3.2 12.9 0.00 0.03 0.00 64 1014.7
20260906161730 33 153 6.4 12.9 0.00 0.03 0.00 63 1014.7
20260906161602 33 57 4.8 12.9 0.00 0.03 0.00 63 1014.9
20260906161230 33 271 4.8 11.3 0.00 0.03 0.00 64 1014.8
20260906160951 33 189 4.8 17.7 0.00 0.03 0.00 64 1014.8
20260906160230 33 304 6.4 17.7 0.00 0.03 0.00 65 1014.8
20260906160056 32 240 6.4 17.7 0.00 0.03 0.00 65 1015.0
20260906155729 33 302 6.4 12.9 0.00 0.03 0.00 65 1014.9
20260906155229 33 269 6.4 12.9 0.00 0.03 0.00 66 1014.8
20260906154729 32 349 4.8 12.9 0.00 0.03 0.00 67 1014.7
20260906154604 32 236 1.6 16.1 0.00 0.03 0.00 67 1015.0
20260906154228 32 324 6.4 16.1 0.00 0.03 0.00 68 1014.9
20260906153744 32 41 6.4 16.1 0.00 0.03 0.00 69 1014.6
20260906153230 32 273 4.8 14.5 0.00 0.03 0.00 70 1014.8
20260906153125 31 141 4.8 17.7 0.00 0.03 0.00 71 1015.0
20260906152729 32 252 9.7 14.5 0.00 0.03 0.00 70 1014.7
20260906152229 32 210 6.4 14.5 0.00 0.03 0.00 73 1014.6
20260906151729 31 262 6.4 11.3 0.00 0.03 0.00 73 1014.6
20260906151717 31 176 3.2 12.9 0.00 0.03 0.00 75 1014.5
20260906151554 31 207 4.8 12.9 0.00 0.03 0.00 73 1014.8
20260906150731 31 134 6.4 12.9 0.00 0.03 0.00 75 1014.5
20260906150231 31 57 8.0 11.3 0.00 0.03 0.00 75 1014.4
20260906150104 30 236 3.2 12.9 0.00 0.03 0.00 76 1014.5
20260906145731 31 145 4.8 11.3 0.00 0.03 0.00 76 1014.4
20260906145231 30 72 4.8 9.7 0.00 0.03 0.00 77 1014.3
20260906144730 30 105 3.2 9.7 0.00 0.03 0.00 78 1014.4
20260906144622 30 205 3.2 9.7 0.00 0.03 0.00 79 1014.6
20260906144229 30 262 3.2 9.7 0.00 0.03 0.00 80 1014.5
20260906143729 30 63 4.8 9.7 0.00 0.03 0.00 80 1014.3
20260906143229 29 91 4.8 9.7 0.00 0.03 0.00 82 1014.3
20260906143055 29 320 1.6 9.7 0.00 0.03 0.00 82 1014.6
20260906142729 29 281 1.6 8.0 0.00 0.03 0.00 83 1014.4
20260906142209 29 143 3.2 9.7 0.00 0.03 0.00 83 1014.4
20260906141705 29 163 4.8 11.3 0.00 0.03 0.00 83 1014.3
20260906141624 28 203 3.2 11.3 0.00 0.03 0.00 83 1014.5
20260906141204 29 338 3.2 11.3 0.00 0.03 0.00 83 1014.3
20260906140704 28 58 3.2 9.7 0.00 0.03 0.00 84 1014.2
20260906140426 28 27 3.2 6.4 0.00 0.03 0.00 83 1014.2
20260906140321 28 236 1.6 6.4 0.00 0.03 0.00 83 1014.4
20260906140104 28 236 1.6 6.4 0.00 0.03 0.00 83 1014.4
20260906135703 28 208 3.2 6.4 0.00 0.03 0.00 85 1014.1
20260906135200 28 335 3.2 6.4 0.00 0.03 0.00 85 1014.0
20260906134656 28 259 1.6 11.3 0.00 0.03 0.00 85 1014.0
20260906134607 28 30 3.2 11.3 0.00 0.03 0.00 85 1014.3
20260906134151 28 119 6.4 11.3 0.00 0.03 0.00 85 1014.1
20260906133907 28 350 3.2 6.4 0.00 0.03 0.00 86 1014.1
20260906133147 28 85 3.2 6.4 0.00 0.03 0.00 86 1014.1
20260906133053 27 284 1.6 4.8 0.00 0.03 0.00 86 1014.2
20260906132901 27 333 1.6 4.8 0.00 0.03 0.00 87 1014.1
20260906132144 27 232 0.0 4.8 0.00 0.03 0.00 87 1014.0
20260906131632 27 289 1.6 4.8 0.00 0.03 0.00 87 1014.0
20260906131602 27 25 1.6 4.8 0.00 0.03 0.00 86 1014.1
20260906131132 27 180 0.0 3.2 0.00 0.03 0.00 87 1013.9
20260906130900 27 20 1.6 3.2 0.00 0.03 0.00 87 1013.8
20260906130210 27 181 0.0 3.2 0.00 0.03 0.00 86 1014.0
20260906130132 27 249 1.6 3.2 0.00 0.03 0.00 87 1013.7
20260906125621 27 308 0.0 3.2 0.00 0.03 0.00 87 1013.8
20260906125121 27 340 0.0 3.2 0.00 0.03 0.00 88 1013.7
20260906124617 27 232 0.0 3.2 0.00 0.03 0.00 89 1013.6
20260906124602 26 0 0.0 1.6 0.00 0.03 0.00 88 1013.8
20260906124107 26 241 1.6 3.2 0.00 0.03 0.00 89 1013.5
20260906123603 26 252 0.0 1.6 0.00 0.03 0.00 90 1013.3
20260906123104 26 0 0.0 3.2 0.00 0.03 0.00 89 1013.5
20260906123102 26 257 0.0 3.2 0.00 0.03 0.00 90 1013.3
20260906122603 26 318 0.0 3.2 0.00 0.03 0.00 90 1013.3
20260906122102 26 210 0.0 3.2 0.00 0.03 0.00 90 1013.2
20260906121602 26 106 0.0 1.6 0.00 0.03 0.00 90 1013.3
20260906121600 26 0 0.0 1.6 0.00 0.03 0.00 89 1013.4
20260906121102 26 209 0.0 1.6 0.00 0.03 0.00 89 1013.2
20260906120601 26 359 0.0 3.2 0.00 0.03 0.00 89 1013.2
20260906120341 26 4 0.0 4.8 0.00 0.03 0.00 89 1013.0
20260906120101 26 0 0.0 4.8 0.00 0.03 0.00 89 1013.2
20260906115604 26 333 1.6 4.8 0.00 0.03 0.00 89 1013.0
20260906115104 26 285 1.6 3.2 0.00 0.03 0.00 89 1012.9
20260906114605 26 0 1.6 4.8 0.00 0.03 0.00 89 1013.1
20260906114603 26 257 1.6 3.2 0.00 0.03 0.00 89 1012.9
20260906114103 26 45 1.6 4.8 0.00 0.03 0.00 89 1012.8
20260906113603 26 152 1.6 4.8 0.00 0.03 0.00 89 1012.8
20260906113103 26 100 1.6 3.2 0.00 0.03 0.00 89 1012.7
20260906113100 26 262 0.0 3.2 0.00 0.03 0.00 89 1012.8
20260906112604 26 279 0.0 3.2 0.00 0.03 0.00 89 1012.6
20260906112103 26 168 0.0 4.8 0.00 0.03 0.00 89 1012.5
20260906111603 26 233 1.6 4.8 0.00 0.03 0.00 89 1012.4
20260906111600 26 247 0.0 4.8 0.00 0.03 0.00 88 1012.6
20260906111104 26 166 1.6 4.8 0.00 0.03 0.00 89 1012.4
20260906110603 26 305 1.6 4.8 0.00 0.03 0.00 89 1012.4
20260906110115 27 7 1.6 6.4 0.00 0.03 0.00 88 1012.5
20260906110111 27 140 3.2 4.8 0.00 0.03 0.00 88 1012.4
20260906110054 26 0 1.6 3.2 0.00 0.03 0.00 88 1012.6
20260906105103 27 244 1.6 6.4 0.00 0.03 0.00 88 1012.5
20260906104608 26 149 1.6 6.4 0.00 0.03 0.00 88 1012.6
20260906104603 27 30 3.2 6.4 0.00 0.03 0.00 88 1012.4
20260906104103 27 296 1.6 6.4 0.00 0.03 0.00 88 1012.4
20260906104038 27 302 1.6 6.4 0.00 0.03 0.00 88 1012.4
20260906103104 27 86 1.6 6.4 0.00 0.03 0.00 88 1012.4
20260906103056 27 70 1.6 4.8 0.00 0.03 0.00 87 1012.4
20260906102603 27 218 1.6 6.4 0.00 0.03 0.00 88 1012.3
20260906102104 27 68 1.6 6.4 0.00 0.03 0.00 87 1012.2
20260906101604 27 290 3.2 6.4 0.00 0.03 0.00 87 1012.2
20260906101600 27 199 3.2 11.3 0.00 0.03 0.00 87 1012.4
20260906101321 27 79 4.8 9.7 0.00 0.03 0.00 87 1012.1
20260906100603 27 142 3.2 9.7 0.00 0.03 0.00 87 1012.1
20260906100339 27 309 4.8 9.7 0.00 0.03 0.00 87 1011.9
20260906100120 27 332 3.2 9.7 0.00 0.03 0.00 86 1012.1
20260906095603 27 250 3.2 9.7 0.00 0.03 0.00 87 1012.0
20260906095104 27 185 3.2 9.7 0.00 0.03 0.00 87 1011.9
20260906094642 27 219 3.2 8.0 0.00 0.03 0.00 86 1012.2
20260906094604 27 262 4.8 9.7 0.00 0.03 0.00 87 1012.0
20260906094103 27 258 4.8 8.0 0.00 0.03 0.00 87 1011.9
20260906093603 27 172 3.2 6.4 0.00 0.03 0.00 87 1012.0
20260906093105 26 117 3.2 8.0 0.00 0.03 0.00 86 1012.2
20260906092603 27 297 3.2 8.0 0.00 0.03 0.00 87 1012.0
20260906092103 27 32 3.2 4.8 0.00 0.03 0.00 87 1012.1
20260906091603 27 347 3.2 6.4 0.00 0.03 0.00 87 1012.0
20260906091555 26 52 1.6 6.4 0.00 0.03 0.00 86 1012.2
20260906091102 26 181 3.2 6.4 0.00 0.03 0.00 86 1012.1
20260906090602 26 288 3.2 6.4 0.00 0.03 0.00 86 1012.0
20260906090054 26 64 1.6 4.8 0.00 0.03 0.00 86 1012.2
20260906085602 26 235 1.6 3.2 0.00 0.03 0.00 86 1012.2
20260906085544 26 297 1.6 3.2 0.00 0.03 0.00 86 1012.2
20260906084602 26 6 0.0 3.2 0.00 0.03 0.00 86 1012.2
20260906084600 26 326 0.0 1.6 0.00 0.03 0.00 85 1012.4
20260906084101 26 298 1.6 3.2 0.00 0.03 0.00 86 1012.2
20260906083602 26 284 0.0 3.2 0.00 0.03 0.00 86 1012.3
20260906083117 26 323 0.0 1.6 0.00 0.03 0.00 85 1012.4
20260906083056 25 323 0.0 1.6 0.00 0.03 0.00 85 1012.5
20260906082604 26 184 0.0 1.6 0.00 0.03 0.00 85 1012.3
20260906082103 25 231 0.0 1.6 0.00 0.03 0.00 85 1012.4
20260906081603 25 148 0.0 1.6 0.00 0.03 0.00 86 1012.6
20260906081556 25 0 0.0 1.6 0.00 0.03 0.00 85 1012.8
20260906081103 25 74 0.0 1.6 0.00 0.03 0.00 86 1012.8
20260906080603 25 333 0.0 0.0 0.00 0.03 0.00 87 1012.9
20260906080106 25 333 0.0 0.0 0.00 0.03 0.00 87 1012.9
20260906075604 25 333 0.0 0.0 0.00 0.03 0.00 87 1013.0
20260906075104 25 333 0.0 1.6 0.00 0.03 0.00 87 1013.0
20260906074827 25 333 0.0 1.6 0.00 0.03 0.00 87 1013.0
20260906074609 25 0 0.0 1.6 0.00 0.03 0.00 87 1013.3
20260906074102 25 314 0.0 1.6 0.00 0.03 0.00 87 1013.1
20260906073601 25 112 0.0 0.0 0.00 0.03 0.00 88 1013.2
20260906073102 25 112 0.0 0.0 0.00 0.03 0.00 88 1013.3
20260906073058 25 0 0.0 0.0 0.00 0.03 0.00 87 1013.6
20260906072603 25 112 0.0 0.0 0.00 0.03 0.00 88 1013.4
20260906072102 25 112 0.0 0.0 0.00 0.03 0.00 88 1013.4
20260906071825 25 112 0.0 0.0 0.00 0.03 0.00 87 1013.6
20260906071556 25 0 0.0 1.6 0.00 0.03 0.00 87 1013.7
20260906071102 25 112 0.0 0.0 0.00 0.03 0.00 87 1013.7
20260906070602 25 112 0.0 0.0 0.00 0.03 0.00 88 1013.8
20260906070502 25 0 0.0 0.0 0.00 0.03 0.00 87 1013.9
20260906070117 25 112 0.0 0.0 0.00 0.03 0.00 88 1013.8
20260906065603 25 112 0.0 0.0 0.00 0.03 0.00 88 1013.9
20260906065104 25 112 0.0 0.0 0.00 0.03 0.00 88 1013.8
20260906064604 25 112 0.0 0.0 0.00 0.03 0.00 87 1013.9
20260906064556 25 0 0.0 0.0 0.00 0.03 0.00 87 1014.1
20260906064103 25 112 0.0 0.0 0.00 0.03 0.00 87 1014.1
20260906063603 25 112 0.0 0.0 0.00 0.03 0.00 88 1014.0
20260906063104 25 112 0.0 1.6 0.00 0.03 0.00 88 1013.9
20260906062603 25 195 0.0 1.6 0.00 0.03 0.00 87 1014.0
20260906062103 25 340 0.0 1.6 0.00 0.03 0.00 87 1014.1
20260906061831 25 340 0.0 1.6 0.00 0.03 0.00 87 1014.1
20260906061638 25 0 0.0 1.6 0.00 0.03 0.00 86 1014.3
20260906061607 25 0 0.0 1.6 0.00 0.03 0.00 86 1014.3
20260906061103 25 21 0.0 3.2 0.00 0.03 0.00 87 1014.1
20260906060603 25 240 1.6 3.2 0.00 0.03 0.00 87 1014.1
20260906060337 25 221 1.6 3.2 0.00 0.03 0.00 87 1014.2
20260906060106 25 206 1.6 3.2 0.00 0.03 0.00 87 1014.3
20260906055604 25 327 0.0 3.2 0.00 0.03 0.00 88 1014.0
20260906055104 25 242 0.0 3.2 0.00 0.03 0.00 88 1013.9
20260906054604 25 34 0.0 3.2 0.00 0.03 0.00 88 1013.9
20260906054557 25 0 0.0 3.2 0.00 0.03 0.00 88 1014.1
20260906054326 25 129 0.0 3.2 0.00 0.03 0.00 88 1013.9
20260906053602 25 160 1.6 3.2 0.00 0.03 0.00 88 1014.1
20260906053103 25 270 0.0 1.6 0.00 0.03 0.00 88 1014.3
20260906053050 25 0 0.0 1.6 0.00 0.03 0.00 87 1014.5
20260906052602 25 20 0.0 1.6 0.00 0.03 0.00 88 1014.4
20260906052102 25 20 0.0 1.6 0.00 0.03 0.00 87 1014.7
20260906051952 25 239 0.0 3.2 0.00 0.03 0.00 86 1014.9
20260906051603 25 101 0.0 3.2 0.00 0.03 0.00 87 1014.7
20260906051102 25 278 0.0 3.2 0.00 0.03 0.00 87 1014.6
20260906050602 25 328 0.0 3.2 0.00 0.03 0.00 87 1014.8
20260906050116 25 232 0.0 3.2 0.00 0.03 0.00 87 1014.8
20260906050114 25 268 0.0 4.8 0.00 0.03 0.00 86 1015.0
20260906045604 25 73 1.6 4.8 0.00 0.03 0.03 87 1014.8
20260906045103 25 232 3.2 4.8 0.00 0.03 0.03 87 1014.8
20260906044656 25 203 0.0 1.6 0.00 0.03 0.03 86 1014.8
20260906044604 25 86 0.0 1.6 0.00 0.03 0.03 86 1014.6
20260906044306 25 228 0.0 1.6 0.00 0.03 0.03 86 1014.6
20260906043533 25 228 0.0 3.2 0.00 0.03 0.03 85 1014.6
20260906043059 25 0 0.0 3.2 0.00 0.03 0.03 85 1014.8
20260906043032 25 139 0.0 3.2 0.00 0.03 0.03 85 1014.6
20260906042532 25 65 0.0 3.2 0.00 0.03 0.03 85 1014.5
20260906042031 25 65 0.0 3.2 0.00 0.03 0.03 84 1014.3
20260906041553 25 224 0.0 3.2 0.00 0.03 0.03 84 1014.6
20260906041532 25 30 0.0 3.2 0.00 0.03 0.03 84 1014.5
20260906041519 25 333 0.0 3.2 0.00 0.03 0.03 85 1014.3
20260906040754 25 257 0.0 3.2 0.00 0.03 0.03 85 1014.2
20260906040138 25 0 0.0 3.2 0.00 0.03 0.03 85 1014.4
20260906040030 25 10 0.0 3.2 0.00 0.03 0.03 86 1014.1
20260906035530 25 195 1.6 4.8 0.00 0.03 0.03 86 1014.0
20260906035030 25 358 3.2 4.8 0.00 0.03 0.03 87 1013.8
20260906035020 24 226 1.6 4.8 0.00 0.03 0.03 88 1013.7
20260906034606 23 318 1.6 4.8 0.00 0.03 0.03 88 1013.9
20260906034030 23 224 1.6 3.2 0.00 0.03 0.03 90 1013.8
20260906033529 23 32 0.0 4.8 0.00 0.03 0.03 91 1013.9
20260906033100 23 351 1.6 6.4 0.00 0.03 0.03 91 1014.0
20260906033029 23 317 3.2 6.4 0.00 0.03 0.03 91 1013.8
20260906032531 23 358 1.6 6.4 0.03 0.03 0.03 92 1013.9
20260906032030 23 186 3.2 4.8 0.03 0.03 0.03 92 1013.9
20260906031601 22 321 0.0 4.8 0.03 0.03 0.03 92 1014.2
20260906031530 23 225 1.6 4.8 0.03 0.03 0.03 93 1014.0
20260906031030 23 234 0.0 3.2 0.03 0.03 0.03 93 1014.2
20260906030530 23 37 0.0 1.6 0.03 0.03 0.03 92 1014.3
20260906030054 22 52 0.0 3.2 0.03 0.03 0.03 91 1014.5
20260906030030 23 177 0.0 3.2 0.03 0.03 0.03 91 1014.2
20260906025531 23 239 1.6 4.8 0.03 0.00 0.03 91 1014.3
20260906025031 23 283 0.0 4.8 0.03 0.00 0.03 90 1014.2
20260906024603 23 292 1.6 8.0 0.03 0.03 0.03 89 1014.7
20260906024531 23 175 1.6 4.8 0.03 0.00 0.03 89 1014.5
20260906024032 23 315 1.6 9.7 0.03 0.00 0.03 87 1014.3
20260906024012 23 164 4.8 11.3 0.03 0.00 0.03 85 1014.4
20260906023255 23 211 6.4 16.1 0.03 0.00 0.03 85 1014.5
20260906023103 23 340 4.8 17.7 0.03 0.03 0.03 84 1014.6
20260906022530 23 219 6.4 16.1 0.00 0.00 0.00 85 1014.5
20260906022030 24 321 9.7 32.2 0.00 0.00 0.00 82 1014.5
20260906021608 24 270 14.5 30.6 0.00 0.00 0.00 79 1015.0
20260906021530 25 223 14.5 32.2 0.00 0.00 0.00 80 1014.8
20260906021030 25 137 12.9 43.5 0.00 0.00 0.00 77 1014.7
20260906020530 26 131 14.5 43.5 0.00 0.00 0.00 71 1014.6
20260906020106 26 224 14.5 30.6 0.00 0.00 0.00 71 1014.8
20260906020029 27 342 14.5 32.2 0.00 0.00 0.00 72 1014.6
20260906015530 27 73 19.3 32.2 0.00 0.00 0.00 71 1014.7
20260906015030 28 290 14.5 33.8 0.00 0.00 0.00 70 1014.5
20260906014559 30 255 16.1 33.8 0.00 0.00 0.00 64 1014.6
20260906014530 31 156 19.3 33.8 0.00 0.00 0.00 64 1014.4
20260906014030 32 250 6.4 12.9 0.00 0.00 0.00 67 1013.6
20260906013530 32 260 4.8 12.9 0.00 0.00 0.00 67 1013.3
20260906013055 32 271 4.8 16.1 0.00 0.00 0.00 65 1013.4
20260906013030 32 231 6.4 12.9 0.00 0.00 0.00 66 1013.2
20260906012530 32 250 3.2 12.9 0.00 0.00 0.00 65 1013.0
20260906012030 32 321 3.2 12.9 0.00 0.00 0.00 65 1012.9
20260906011557 32 275 6.4 12.9 0.00 0.00 0.00 64 1012.8
20260906011530 32 182 8.0 12.9 0.00 0.00 0.00 64 1012.6
20260906011030 32 82 4.8 11.3 0.00 0.00 0.00 64 1012.3
20260906010530 33 292 4.8 14.5 0.00 0.00 0.00 63 1012.0
20260906010108 32 134 4.8 17.7 0.00 0.00 0.00 62 1012.2
20260906010029 33 215 4.8 19.3 0.00 0.00 0.00 63 1012.0
20260906005752 33 139 4.8 19.3 0.00 0.00 0.00 62 1011.8
20260906005031 33 20 6.4 14.5 0.00 0.00 0.00 61 1011.8
20260906004600 33 130 6.4 16.1 0.00 0.00 0.00 60 1011.9
20260906004530 33 167 6.4 14.5 0.00 0.00 0.00 60 1011.6
20260906004031 33 220 6.4 17.7 0.00 0.00 0.00 60 1011.4
20260906003529 33 265 6.4 17.7 0.00 0.00 0.00 59 1011.4
20260906003100 33 166 6.4 16.1 0.00 0.00 0.00 58 1011.4
20260906003029 33 294 6.4 17.7 0.00 0.00 0.00 58 1011.1
20260906002748 34 307 6.4 14.5 0.00 0.00 0.00 57 1010.9
20260906002030 34 162 6.4 14.5 0.00 0.00 0.00 58 1010.9
20260906001606 34 218 6.4 14.5 0.00 0.00 0.00 56 1011.2
20260906001530 35 313 6.4 12.9 0.00 0.00 0.00 56 1010.8
20260906001030 35 146 6.4 17.7 0.00 0.00 0.00 55 1010.8
20260906000530 35 52 9.7 17.7 0.00 0.00 0.00 55 1010.5
20260906000030 35 236 8.0 17.7 0.00 0.00 0.00 55 1010.5
20260905235530 35 107 8.0 16.1 0.00 0.00 0.00 54 1010.5
20260905235031 36 211 3.2 11.3 0.00 0.00 0.00 53 1010.3
20260905234559 35 60 6.4 14.5 0.00 0.00 0.00 51 1010.4
20260905234532 36 89 6.4 14.5 0.00 0.00 0.00 52 1009.9
20260905234031 36 226 8.0 14.5 0.00 0.00 0.00 51 1009.9
20260905233530 36 220 4.8 17.7 0.00 0.00 0.00 50 1009.7
20260905233108 36 344 6.4 19.3 0.00 0.00 0.00 49 1010.0
20260905233030 36 326 6.4 20.9 0.00 0.00 0.00 50 1009.7
20260905232531 36 130 8.0 20.9 0.00 0.00 0.00 49 1009.7
20260905232030 36 335 8.0 17.7 0.00 0.00 0.00 49 1009.8
20260905231554 36 61 9.7 19.3 0.00 0.00 0.00 48 1010.0
20260905231530 36 342 9.7 17.7 0.00 0.00 0.00 48 1009.7
20260905231030 37 264 6.4 16.1 0.00 0.00 0.00 49 1009.6
20260905230530 37 164 8.0 16.1 0.00 0.00 0.00 47 1009.7
20260905230108 37 312 4.8 17.7 0.00 0.00 0.00 47 1010.1
20260905230030 37 37 4.8 17.7 0.00 0.00 0.00 47 1009.7
20260905225530 37 293 8.0 17.7 0.00 0.00 0.00 46 1009.8
20260905225030 37 143 8.0 14.5 0.00 0.00 0.00 46 1009.7
20260905224601 37 77 6.4 19.3 0.00 0.00 0.00 45 1009.9
20260905224530 38 201 8.0 19.3 0.00 0.00 0.00 46 1009.6
20260905224030 38 16 4.8 19.3 0.00 0.00 0.00 45 1009.5
20260905223530 38 155 8.0 19.3 0.00 0.00 0.00 43 1009.3
20260905223054 38 320 6.4 17.7 0.00 0.00 0.00 42 1009.7
20260905223027 38 119 8.0 17.7 0.00 0.00 0.00 43 1009.4
20260905222748 38 316 4.8 16.1 0.00 0.00 0.00 43 1009.4
20260905222018 38 66 6.4 20.9 0.00 0.00 0.00 42 1009.3
20260905221603 38 186 8.0 19.3 0.00 0.00 0.00 41 1009.4
20260905221513 38 117 8.0 20.9 0.00 0.00 0.00 42 1009.2
20260905221010 38 233 6.4 16.1 0.00 0.00 0.00 42 1009.0
20260905220505 38 82 4.8 11.3 0.00 0.00 0.00 42 1009.1
20260905220450 38 134 4.8 12.9 0.00 0.00 0.00 43 1009.1
20260905220104 38 259 3.2 14.5 0.00 0.00 0.00 42 1009.4
20260905215505 38 293 6.4 16.1 0.00 0.00 0.00 43 1009.1
20260905215003 38 122 4.8 16.1 0.00 0.00 0.00 42 1009.2
20260905214604 38 329 3.2 14.5 0.00 0.00 0.00 42 1009.6
20260905214504 38 34 4.8 14.5 0.00 0.00 0.00 43 1009.3
20260905214003 38 265 4.8 17.7 0.00 0.00 0.00 42 1009.3
20260905213504 38 82 9.7 17.7 0.00 0.00 0.00 41 1009.4
20260905213110 38 27 9.7 19.3 0.00 0.00 0.00 40 1009.7
20260905213003 39 111 11.3 17.7 0.00 0.00 0.00 40 1009.5